Time,TemperatureF,DewpointF,PressureIn,WindDirection,WindDirectionDegrees,WindSpeedMPH,WindSpeedGustMPH,Humidity,HourlyPrecipIn,Conditions,Clouds,dailyrainin,SoftwareType,DateUTC
2013-03-23 00:05:00,53.4,47.0,29.78,NW,305,0.0,-999.0,80,-99.99,,,0.00,weatherlink.com 1.10,2013-03-23 05:05:00,
2013-03-23 00:20:00,53.1,47.0,29.77,NW,319,0.0,-999.0,81,-99.99,,,0.00,weatherlink.com 1.10,2013-03-23 05:20:00,
2013-03-23 00:35:00,53.0,47.0,29.77,NNW,345,0.0,-999.0,81,-99.99,,,0.00,weatherlink.com 1.10,2013-03-23 05:35:00,
2013-03-23 00:50:00,52.8,47.0,29.77,North,5,1.0,-999.0,81,-99.99,,,0.00,weatherlink.com 1.10,2013-03-23 05:50:00,
2013-03-23 01:05:00,52.7,47.0,29.77,NNE,16,0.0,-999.0,81,-99.99,,,0.00,weatherlink.com 1.10,2013-03-23 06:05:00,
2013-03-23 01:20:00,52.2,47.0,29.76,NNE,13,4.0,-999.0,82,-99.99,,,0.00,weatherlink.com 1.10,2013-03-23 06:20:00,
2013-03-23 01:35:00,52.1,47.0,29.75,North,5,0.0,-999.0,82,-99.99,,,0.00,weatherlink.com 1.10,2013-03-23 06:35:00,
2013-03-23 01:50:00,52.3,47.0,29.75,North,5,0.0,-999.0,82,-99.99,,,0.00,weatherlink.com 1.10,2013-03-23 06:50:00,
2013-03-23 02:05:00,52.3,47.0,29.75,NNE,26,4.0,-999.0,82,-99.99,,,0.00,weatherlink.com 1.10,2013-03-23 07:05:00,
2013-03-23 02:20:00,52.4,47.0,29.75,North,360,0.0,-999.0,83,-99.99,,,0.00,weatherlink.com 1.10,2013-03-23 07:20:00,
2013-03-23 02:35:00,52.6,48.0,29.74,North,5,3.0,-999.0,83,-99.99,,,0.00,weatherlink.com 1.10,2013-03-23 07:35:00,
2013-03-23 02:50:00,52.7,48.0,29.74,NNE,33,0.0,-999.0,83,-99.99,,,0.00,weatherlink.com 1.10,2013-03-23 07:50:00,
2013-03-23 03:05:00,52.6,48.0,29.74,North,360,0.0,-999.0,83,-99.99,,,0.00,weatherlink.com 1.10,2013-03-23 08:05:00,
2013-03-23 03:20:00,52.7,48.0,29.73,North,360,0.0,-999.0,83,-99.99,,,0.00,weatherlink.com 1.10,2013-03-23 08:20:00,
2013-03-23 03:50:00,52.6,48.0,29.73,NNW,339,0.0,-999.0,83,-99.99,,,0.00,weatherlink.com 1.10,2013-03-23 08:50:00,
2013-03-23 04:05:00,52.6,48.0,29.73,NE,36,6.0,-999.0,83,-99.99,,,0.00,weatherlink.com 1.10,2013-03-23 09:05:00,
2013-03-23 04:20:00,52.6,48.0,29.72,North,5,0.0,-999.0,83,-99.99,,,0.00,weatherlink.com 1.10,2013-03-23 09:20:00,
2013-03-23 04:35:00,52.5,48.0,29.73,North,5,0.0,-999.0,83,-99.99,,,0.00,weatherlink.com 1.10,2013-03-23 09:35:00,
2013-03-23 04:50:00,52.5,48.0,29.72,North,9,0.0,-999.0,84,-99.99,,,0.00,weatherlink.com 1.10,2013-03-23 09:50:00,
2013-03-23 05:05:00,52.5,48.0,29.73,NNE,21,0.0,-999.0,84,-99.99,,,0.00,weatherlink.com 1.10,2013-03-23 10:05:00,
2013-03-23 05:20:00,52.6,48.0,29.73,NNE,21,0.0,-999.0,84,-99.99,,,0.00,weatherlink.com 1.10,2013-03-23 10:20:00,
2013-03-23 05:35:00,52.5,48.0,29.73,North,10,0.0,-999.0,84,-99.99,,,0.00,weatherlink.com 1.10,2013-03-23 10:35:00,
2013-03-23 05:50:00,52.5,48.0,29.74,NNW,329,0.0,-999.0,84,-99.99,,,0.00,weatherlink.com 1.10,2013-03-23 10:50:00,
2013-03-23 06:05:00,52.3,48.0,29.75,North,10,0.0,-999.0,84,-99.99,,,0.00,weatherlink.com 1.10,2013-03-23 11:05:00,
2013-03-23 06:20:00,52.4,48.0,29.75,NNW,336,0.0,-999.0,84,-99.99,,,0.00,weatherlink.com 1.10,2013-03-23 11:20:00,
2013-03-23 06:35:00,52.1,47.0,29.75,North,360,0.0,-999.0,84,-99.99,,,0.00,weatherlink.com 1.10,2013-03-23 11:35:00,
2013-03-23 06:50:00,51.9,48.0,29.76,NNE,18,0.0,-999.0,85,-99.99,,,0.00,weatherlink.com 1.10,2013-03-23 11:50:00,
2013-03-23 07:05:00,51.9,48.0,29.76,NNE,19,0.0,-999.0,85,-99.99,,,0.00,weatherlink.com 1.10,2013-03-23 12:05:00,
2013-03-23 07:35:00,51.5,47.0,29.77,NNE,14,4.0,-999.0,85,-99.99,,,0.00,weatherlink.com 1.10,2013-03-23 12:35:00,
2013-03-23 07:50:00,51.3,47.0,29.77,North,360,4.0,-999.0,86,-99.99,,,0.00,weatherlink.com 1.10,2013-03-23 12:50:00,
2013-03-23 08:05:00,51.2,47.0,29.78,NNE,30,7.0,-999.0,86,-99.99,,,0.00,weatherlink.com 1.10,2013-03-23 13:05:00,
2013-03-23 08:20:00,51.1,47.0,29.78,NNE,30,4.0,-999.0,86,-99.99,,,0.00,weatherlink.com 1.10,2013-03-23 13:20:00,
2013-03-23 08:35:00,50.9,47.0,29.77,NNE,12,4.0,-999.0,87,-99.99,,,0.00,weatherlink.com 1.10,2013-03-23 13:35:00,
2013-03-23 08:50:00,50.8,47.0,29.77,North,360,5.0,-999.0,87,-99.99,,,0.00,weatherlink.com 1.10,2013-03-23 13:50:00,
2013-03-23 09:05:00,50.8,47.0,29.77,NE,36,6.0,-999.0,87,-99.99,,,0.00,weatherlink.com 1.10,2013-03-23 14:05:00,
2013-03-23 09:20:00,50.9,47.0,29.78,NNE,19,0.0,-999.0,87,-99.99,,,0.00,weatherlink.com 1.10,2013-03-23 14:20:00,
2013-03-23 09:35:00,51.2,48.0,29.77,NNW,345,0.0,-999.0,87,-99.99,,,0.00,weatherlink.com 1.10,2013-03-23 14:35:00,
2013-03-23 09:50:00,51.5,48.0,29.77,NNE,24,5.0,-999.0,87,-99.99,,,0.00,weatherlink.com 1.10,2013-03-23 14:50:00,
2013-03-23 10:05:00,51.7,48.0,29.77,NNE,23,2.0,-999.0,87,-99.99,,,0.00,weatherlink.com 1.10,2013-03-23 15:05:00,
2013-03-23 10:20:00,51.8,48.0,29.77,North,350,2.0,-999.0,88,-99.99,,,0.00,weatherlink.com 1.10,2013-03-23 15:20:00,
2013-03-23 10:35:00,51.9,49.0,29.77,NNW,342,3.0,-999.0,88,-99.99,,,0.00,weatherlink.com 1.10,2013-03-23 15:35:00,
2013-03-23 10:50:00,52.0,49.0,29.76,NNW,345,5.0,-999.0,88,-99.99,,,0.00,weatherlink.com 1.10,2013-03-23 15:50:00,
2013-03-23 11:05:00,52.2,49.0,29.76,NNE,14,5.0,-999.0,88,-99.99,,,0.00,weatherlink.com 1.10,2013-03-23 16:05:00,
2013-03-23 11:21:00,52.3,49.0,29.76,NNE,28,0.0,-999.0,88,-99.99,,,0.00,weatherlink.com 1.10,2013-03-23 16:21:00,
2013-03-23 11:36:00,52.7,49.0,29.76,ENE,66,4.0,-999.0,88,-99.99,,,0.00,weatherlink.com 1.10,2013-03-23 16:36:00,
2013-03-23 11:51:00,53.1,49.0,29.76,NE,38,0.0,-999.0,87,-99.99,,,0.00,weatherlink.com 1.10,2013-03-23 16:51:00,
2013-03-23 12:06:00,53.7,50.0,29.75,NW,323,0.0,-999.0,87,-99.99,,,0.00,weatherlink.com 1.10,2013-03-23 17:06:00,
2013-03-23 12:21:00,53.3,50.0,29.75,North,355,0.0,-999.0,88,-99.99,,,0.00,weatherlink.com 1.10,2013-03-23 17:21:00,
2013-03-23 12:36:00,53.3,50.0,29.74,North,355,0.0,-999.0,88,-99.99,,,0.01,weatherlink.com 1.10,2013-03-23 17:36:00,
2013-03-23 12:51:00,53.4,50.0,29.73,North,360,0.0,-999.0,88,-99.99,,,0.01,weatherlink.com 1.10,2013-03-23 17:51:00,
2013-03-23 13:06:00,53.9,51.0,29.72,NE,53,0.0,-999.0,89,-99.99,,,0.01,weatherlink.com 1.10,2013-03-23 18:06:00,
2013-03-23 14:06:00,56.3,53.0,29.68,NE,39,0.0,-999.0,87,-99.99,,,0.01,weatherlink.com 1.10,2013-03-23 19:06:00,
2013-03-23 14:21:00,57.5,53.0,29.67,ESE,121,2.0,-999.0,86,-99.99,,,0.01,weatherlink.com 1.10,2013-03-23 19:21:00,
2013-03-23 14:36:00,57.8,53.0,29.66,East,98,1.0,-999.0,85,-99.99,,,0.01,weatherlink.com 1.10,2013-03-23 19:36:00,
2013-03-23 14:51:00,59.0,55.0,29.66,ESE,114,4.0,-999.0,85,-99.99,,,0.01,weatherlink.com 1.10,2013-03-23 19:51:00,
2013-03-23 15:06:00,59.0,55.0,29.66,East,101,0.0,-999.0,85,-99.99,,,0.01,weatherlink.com 1.10,2013-03-23 20:06:00,
2013-03-23 15:21:00,59.3,55.0,29.65,East,101,0.0,-999.0,84,-99.99,,,0.01,weatherlink.com 1.10,2013-03-23 20:21:00,
2013-03-23 15:36:00,59.8,55.0,29.64,ESE,102,0.0,-999.0,84,-99.99,,,0.01,weatherlink.com 1.10,2013-03-23 20:36:00,
2013-03-23 16:06:00,60.3,55.0,29.64,NW,304,0.0,-999.0,83,-99.99,,,0.01,weatherlink.com 1.10,2013-03-23 21:06:00,
2013-03-23 16:36:00,59.0,54.0,29.63,West,279,0.0,-999.0,84,-99.99,,,0.01,weatherlink.com 1.10,2013-03-23 21:36:00,
2013-03-23 17:21:00,59.3,55.0,29.64,NW,319,0.0,-999.0,85,-99.99,,,0.01,weatherlink.com 1.10,2013-03-23 22:21:00,
2013-03-23 17:36:00,58.3,54.0,29.64,NW,306,4.0,-999.0,85,-99.99,,,0.01,weatherlink.com 1.10,2013-03-23 22:36:00,
2013-03-23 17:51:00,56.9,53.0,29.64,North,360,4.0,-999.0,86,-99.99,,,0.01,weatherlink.com 1.10,2013-03-23 22:51:00,
2013-03-23 18:06:00,56.7,53.0,29.64,North,11,0.0,-999.0,87,-99.99,,,0.01,weatherlink.com 1.10,2013-03-23 23:06:00,
2013-03-23 18:21:00,56.8,53.0,29.65,NNE,19,0.0,-999.0,87,-99.99,,,0.01,weatherlink.com 1.10,2013-03-23 23:21:00,
2013-03-23 18:36:00,56.8,53.0,29.65,North,360,4.0,-999.0,87,-99.99,,,0.01,weatherlink.com 1.10,2013-03-23 23:36:00,
2013-03-23 18:51:00,56.7,53.0,29.66,NNW,327,0.0,-999.0,87,-99.99,,,0.01,weatherlink.com 1.10,2013-03-23 23:51:00,
2013-03-23 19:06:00,56.5,53.0,29.66,NNE,17,0.0,-999.0,88,-99.99,,,0.01,weatherlink.com 1.10,2013-03-24 00:06:00,
2013-03-23 19:36:00,56.0,53.0,29.67,NNW,334,0.0,-999.0,88,-99.99,,,0.01,weatherlink.com 1.10,2013-03-24 00:36:00,
2013-03-23 19:51:00,55.7,52.0,29.66,NNE,26,1.0,-999.0,88,-99.99,,,0.01,weatherlink.com 1.10,2013-03-24 00:51:00,
2013-03-23 20:06:00,55.6,52.0,29.67,NNE,26,0.0,-999.0,88,-99.99,,,0.01,weatherlink.com 1.10,2013-03-24 01:06:00,
2013-03-23 20:21:00,55.5,52.0,29.67,NNE,26,0.0,-999.0,88,-99.99,,,0.01,weatherlink.com 1.10,2013-03-24 01:21:00,
2013-03-23 20:36:00,55.5,52.0,29.67,NNE,32,2.0,-999.0,89,-99.99,,,0.01,weatherlink.com 1.10,2013-03-24 01:36:00,
2013-03-23 20:51:00,55.3,52.0,29.68,NNE,26,2.0,-999.0,89,-99.99,,,0.01,weatherlink.com 1.10,2013-03-24 01:51:00,
2013-03-23 21:06:00,55.4,52.0,29.68,NNE,32,4.0,-999.0,89,-99.99,,,0.01,weatherlink.com 1.10,2013-03-24 02:06:00,
2013-03-23 21:21:00,55.4,52.0,29.67,NNE,18,3.0,-999.0,89,-99.99,,,0.01,weatherlink.com 1.10,2013-03-24 02:21:00,
2013-03-23 21:36:00,55.5,52.0,29.67,NNE,30,0.0,-999.0,89,-99.99,,,0.01,weatherlink.com 1.10,2013-03-24 02:36:00,
2013-03-23 21:51:00,55.5,52.0,29.68,NNE,29,0.0,-999.0,88,-99.99,,,0.01,weatherlink.com 1.10,2013-03-24 02:51:00,
2013-03-23 22:06:00,55.6,52.0,29.67,NE,52,0.0,-999.0,88,-99.99,,,0.01,weatherlink.com 1.10,2013-03-24 03:06:00,
2013-03-23 22:36:00,55.7,52.0,29.68,East,91,0.0,-999.0,88,-99.99,,,0.01,weatherlink.com 1.10,2013-03-24 03:36:00,
2013-03-23 22:51:00,55.7,52.0,29.69,East,91,0.0,-999.0,88,-99.99,,,0.01,weatherlink.com 1.10,2013-03-24 03:51:00,
2013-03-23 23:06:00,55.8,52.0,29.70,East,91,0.0,-999.0,88,-99.99,,,0.01,weatherlink.com 1.10,2013-03-24 04:06:00,
2013-03-23 23:21:00,55.8,52.0,29.69,East,91,0.0,-999.0,88,-99.99,,,0.01,weatherlink.com 1.10,2013-03-24 04:21:00,
2013-03-23 23:36:00,55.8,52.0,29.68,East,91,0.0,-999.0,88,-99.99,,,0.01,weatherlink.com 1.10,2013-03-24 04:36:00,
2013-03-23 23:51:00,55.8,52.0,29.68,East,91,0.0,-999.0,88,-99.99,,,0.01,weatherlink.com 1.10,2013-03-24 04:51:00,